Location: Saint-Restitut
(44.3351°N, 4.7915°E)
Time: 07:25:38
(UTC+00:00)

CZ-4 R/B - Pass Details

Date: 03 February 2023
Orbit: 526 x 587 km, 97.7° (Epoch: 26 March)

Event Time Altitude Azimuth Distance (km) Brightness Sun altitude
Rises 19:37:01 0° 196° (SSW) 2,800 5.1 -29.6°
Maximum altitude 19:42:52 24° 265° (W) 1,223 3.7 -30.6°
Drops below altitude 10° 19:46:13 10° 320° (NW) 1,888 4.6 -31.2°
Sets 19:48:42 0° 335° (NNW) 2,780 5.3 -31.7°
